960409 709  1.3+  0.0     040515 704  0.2+  0.7+    040817 213  0.4-  0.3-    

960409 709  0.4+  0.3-    040515 704  1.2+  0.2+    040817 213  0.2+  0.4-    

960409 709  0.6+  0.5-    040516 J76  0.4+  0.1+    040817 213  0.1-  0.2+    

960409 709  1.2+  1.1-    040516 J76  0.5+  0.1+    040817 J98  1.4+  0.3-    

960409 709  0.9+  0.3-    040516 J76  0.5+  0.2+    040817 A01  0.4+  0.8+    

960409 709  1.3+  0.9-    040517 704 (2.6-  1.0+)   040817 J98 (3.3-  1.4+)   

960409 709  0.8+  0.5-    040517 704  1.8-  0.6+    040817 A02  0.1+  0.4+    

960515 691  0.2-  0.8+    040517 704 (1.7-  3.9+)   040817 A02  0.3+  0.6+    

960515 691  0.4-  0.7+    040517 704  0.8-  1.4+    040818 A02  0.8+  0.1-    

960515 691  0.6-  0.7+    040521 704  0.2-  1.6+    040818 415  0.2+  0.4-    

960615 568  0.4-  0.6-    040521 704  1.0-  0.0     040818 415  0.5+  0.4-    

960615 568  0.0   0.7-    040521 704  0.7+  0.4+    040819 415  0.8+  0.3-    

960615 568  0.5-  0.1-    040521 704  0.0   1.0-    040819 415  0.9+  0.4-    

1997/                     040521 704  0.7+  1.3+    040819 J78  0.3+  0.3-    

970512 046  0.5-  0.3+    040521 704  0.8+  0.9-    040819 J78  0.4+  0.2-    

970512 046  0.8-  0.6+    040521 704  1.9+  0.5-    040819 J78  0.4+  0.2-    

970512 046  1.7-  1.3+    040524 360  0.1-  0.0     040819 939  0.1+  0.5-    

970515 118  0.9+  0.0     040524 360  0.2+  0.1-    040819 939  0.6-  0.2+    

970515 118  1.1+  0.1+    040603 349  0.4-  0.0     040819 939  1.7-  1.3+    

970515 118  1.1+  0.0     040603 349  0.3-  0.2+    040819 445  0.7+  0.2-    

970531 402  0.5+  0.4+    040603 349  0.1-  0.4+    040820 445  0.7+  1.4+    

970531 402  0.1+  0.4+    040611 704  0.4+  2.3+    040820 A02  0.7-  0.3+    

970531 402  0.2-  0.6+    040611 704  1.2+  0.8+    040820 A02  0.3-  0.1+    

970531 360  0.9+  0.0     040611 704  2.3+  0.6+    040820 A02  1.1-  0.2+    

970531 360  0.9+  0.2+    040611 704  0.6+  1.7-    040822 846  0.0   0.2-    

970601 118  0.4+  0.8+    040613 A02  0.6-  0.3-    040823 415  0.0   0.0     

970601 118  0.2+  0.5+    040613 A02  0.7-  0.2+    040824 415  0.4+  0.4-    

970603 691  0.7+  0.3+    040613 A02  0.9-  0.3+    040824 415  0.5+  0.3-    

970606 897  0.4+  0.8-    040613 349  0.2+  0.5+    040824 415  0.5+  0.5-    

970607 867  0.6+  0.4+    040613 349  0.1+  0.3+    040825 415  0.4+  0.4-    

970607 867  0.6+  0.3+    040613 349  0.0   0.1+    040825 415  0.4+  0.4-    

970610 046  0.6+  0.2+    040614 D70  1.5-  1.1+    040825 415  0.5+  0.4-    

970610 046  0.9+  0.4+    040614 D70  0.3+  0.0     040831 415  0.2+  0.7-    

970610 046  0.8+  0.1+    040614 D70  0.5-  0.6+    040831 415  0.2+  0.4-    

970610 118  1.1+  0.2+    040616 675 (1.6-  2.9-)Y  040831 415  0.8+  0.9-    

970611 118  0.7+  0.1+    040616 675 (1.0-  3.7-)Y  040901 415  0.6+  0.7-    

970612 360  1.2+  0.1+    040616 D83  0.7+  0.3+    040901 415  0.3+  0.6-    

970612 360  1.1+  0.2+    040616 D83  0.9+  0.0     040901 415  0.4-  1.0-    

970613 402  1.0+  0.6+    040616 D83  0.0   0.3+    040906 415  0.3+  0.6-    

970613 402  1.0+  0.2+    040616 D83  0.5+  0.0     040906 415  0.0   0.5-    

970613 402  1.2+  0.3+    040620 A01  0.3+  0.4+    040906 415  0.2+  0.5-    

970625 954  1.8+  0.5+    040620 A01  2.0-  1.2+    040906 215  0.8-  0.4-    

970625 954  1.7+  0.5+    040625 213  0.1-  0.3-    040906 215  0.3-  0.6+    

970625 954  1.8+  0.5+    040625 213  0.3+  0.2+    040906 215  0.3-  0.4-    

970625 954  1.8+  0.5+    040626 859  0.1-  0.1-    040906 938  0.0   0.1-    

970625 954  1.7+  0.3+    040626 048  0.7-  0.4+    040906 938  0.2-  0.1+    

970625 954 (1.7-  2.6-)   040626 048  0.8-  0.8+    040908 415  0.1-  0.6-    

970625 954  1.6+  0.3+    040626 048  0.5-  0.3+    040908 415  0.2+  0.1-    

970625 954  1.6+  0.3+    040626 048  0.9-  0.5+    040911 844  0.4+  0.6-    

970626 118  0.2-  0.4+    040626 048  0.5-  0.6+    040911 844  0.9-  0.3-    

970626 118  0.4-  0.1+    040627 939  0.2+  0.2+    040911 844  0.8-  0.1+    

970629 402  0.1+  0.3-    040627 939  0.1-  0.1+    040911 844  0.9-  0.6+    

970629 402  0.3+  0.3-    040627 939  0.4-  0.1-    040911 844  0.4-  0.0     

970629 402  0.3+  0.3-    040627 170  0.2+  0.0     041002 415  0.1+  0.4-    

970629 360  0.5+  0.4-    040627 170  0.1+  0.1+    041002 415  0.5+  0.5-    

970629 360  0.2+  0.1-    040627 859  0.0   0.0     041002 415  0.1-  0.4-    

970629 897  0.4-  0.2+    040627 859  0.1-  0.0     041006 360  0.2+  0.0     

970629 897  0.6-  0.1+    040627 859  0.0   0.1+    041006 360  0.1+  0.0     

970630 372  0.4-  1.0+    040627 859  0.6-  0.1-    041008 415  0.3+  0.3-    

970703 954  0.0   0.1-    040627 620  0.3+  0.1-    041008 415  0.5+  0.3-    

970703 954  0.1-  0.1-    040627 620  0.5+  0.1-    041008 415  0.2+  0.0     

970703 954  0.3-  0.1-    040627 620  0.3+  0.2+    041009 704  1.9-  0.1+    

970703 954  0.0   0.2-    040630 360  0.2+  0.1-    041009 704  0.9-  0.3-    

970704 402  0.1-  0.1-    040630 360  0.7+  0.1-    041009 704  0.6-  0.3+    

970704 402  0.2-  0.5+    040705 859  0.1+  0.5+    041009 704  0.5-  0.3-    

970704 402  0.1-  0.0     040705 859  0.1+  0.3+    041009 704  0.5+  0.3-    

970705 360  0.1-  0.2+    040705 859  0.6+  0.6+    041009 415  0.2-  0.0     

970705 372  0.3-  1.6+    040707 349  0.4+  0.1+    041009 415  0.5+  0.5-    

970705 360  0.2+  0.1-    040707 349  0.5+  0.2+    041009 415  0.2+  0.5-    

970708 327  1.1-  1.8+    040707 349  0.3+  0.0     041011 445 (3.0-  0.8-)   

970708 327 (3.6-  0.1-)   040707 213  0.0   0.3+    041011 445  2.4-  0.4+    

970709 046  0.0   0.0     040707 213  0.7-  0.3+    041015 J78  0.6-  0.7-    

970709 046  0.2-  0.0     040709 939  0.6+  0.1-    041015 J78  0.3-  1.1-    

970709 046  0.1-  0.1+    040709 939  0.1-  0.1-    041015 J78  0.3-  1.1-    

970711 696  0.9+  0.3-    040709 939  0.7-  0.1+    041017 349  0.3-  1.1-    

970711 696  0.9+  0.4-    040709 704  0.2-  1.1+    041017 349  0.3-  0.7-    

970711 696  0.9+  0.1-    040709 704  0.6+  0.6-    041017 349  0.2-  1.1-    

970711 696  0.7+  0.1-    040709 704  0.6+  1.2-    041017 349  0.3+  1.1-    

970711 696  0.5+  0.1-    040709 699 (2.6-  0.5+)   041017 D83  0.2+  0.7-    

970722 118  0.7+  0.7+    040709 704  0.1+  0.3-    041017 D83  0.0   1.4-    

970722 118  0.9+  0.7+    040709 704  1.9-  1.0-    041017 D83  0.1-  0.7-    

970722 118  1.0+  0.8+    040709 699  1.2-  0.1+    041030 415  0.7+  0.0     

970723 954  1.0+  0.4-    040709 699  1.7-  0.2+    041030 415  0.2-  0.2-    

970723 954  0.8+  0.4-    040709 699 (3.8-  0.5+)   041103 699  0.7+  1.4+    

970723 954  1.1+  0.3-    040710 130  0.5+  0.0     041103 699  0.5+  2.0+    

970723 954  1.1+  0.4-    040710 130  0.4+  0.2+    041103 699  0.9+  1.5+    

970724 954 (3.9+  7.6-)   040710 130  0.3+  0.5-    041103 699  0.2+  1.3+    

970724 954  1.2+  0.2-    040711 048  0.1-  0.5-    041103 349  0.9-  0.4+    

970724 954  1.1+  0.2-    040711 048  0.5-  0.2-    041103 349  0.8-  0.0     

970724 954  1.1+  0.6-    040711 048  0.3-  0.2-    041107 704  0.1-  0.7-    

970724 360  0.8+  0.1+    040711 048  0.1-  0.4-    041107 704  0.1+  0.0     

970724 360  0.7+  0.0     040711 048  0.2+  0.3-    041107 704  0.3+  0.5-    

970724 867  0.9+  0.1+    040712 138  1.4-  1.8+    041107 360  0.0   0.4-    

970724 867  0.9+  0.3-    040713 138  0.4-  0.7+    041107 360  0.3+  0.5-    

970724 867  0.8+  0.0     040713 138  0.1+  0.9+    041108 I77  0.6+  0.5-    

970804 118  0.4-  0.4+    040713 360  0.6+  0.2-    041108 I77  0.2+  0.2+    

970804 118  0.8-  0.2-    040713 360  0.6+  0.3-    041109 I77  0.3+  0.4+    

970806 118  0.7-  1.0+    040714 415  0.7+  0.1-    041112 415  0.2+  0.8-    

970806 118  0.4-  0.8+    040714 415  0.5+  0.5-    041112 415  0.7+  0.2-    

970807 108 (3.1+  0.7+)   040714 415  0.6+  0.3-    041123 E12  1.4+  1.2+    

970807 108  1.0+  1.8+    040714 J76  0.7-  0.1-    041123 E12  1.3+  0.7+    

970807 108  0.2+  2.2+    040714 J76  0.7-  0.7-    041123 E12  1.3+  0.4+    

970807 118  0.8-  0.8+    040714 J76  0.5-  0.5-    041123 E12  1.4+  0.6+    

970807 118  0.6-  0.4+    040715 415  0.4+  0.4-    041203 D83  0.7+  1.3+    

970809 046  0.6-  0.8+    040715 415  0.9+  0.8-    041203 D83 (3.8+  1.1+)   

970809 046  0.8-  0.4+    040716 415  0.7+  0.4-    041203 D83 (4.1+  0.1-)   

970809 046  0.6-  0.5+    040716 415  0.4+  0.2-    041203 D83  1.7+  1.1+    

970810 118  0.5-  0.2-    040716 D74  0.8+  0.8-    2005/                     

970810 118  0.4-  0.0     040716 D74  0.5+  0.6-    050101 J76  1.4+  1.1+    

970810 118  0.5-  0.3-    040716 215  0.5-  0.0     050101 J76  1.1+  0.1+    

970820 118  0.7+  0.1-    040716 215  0.5+  0.2-    050101 J76  1.3+  0.5+    

970820 118  0.2+  0.2-    040716 215  0.4+  0.3-    050102 415 (2.9+  0.9+)   



NAKANO

         **** Don't distribute anyone except personal use only ****

                (C) Copyright 2005 OAA/ComputingSection

write mail from CFAD0::NAKANO on 2005-11-03 23:22:12(JST).



  48P/Johnson 

Epoch 2004 Oct. 2.0 TT = JDT 2453280.5  

T 2004 Oct. 11.96892 TT                                 Nakano

q   2.3099776            (2000.0)            P               Q

n   0.14154885     Peri.  207.69501     +0.80772268     +0.55098025

a   3.6464071      Node   117.32962     -0.48780498     +0.82440286

e   0.3665058      Incl.   13.65825     -0.33110478     +0.12954033

P   6.96

From 237 observations 1949-1999, mean residual 0".83.  Nongravitational

   parameters A1 = +0.69 +/- 0.02, A2 = -0.0234 +/- 0.0007.



NAKANO

         **** Don't distribute anyone except personal use only ****

                (C) Copyright 2001 OAA/ComputingSection

write mail from CFAD0::NAKANO on 2001-04-28 20:31:35(JST).

 



 130P/McNaught-Hughes 

Epoch 2004 Nov. 11.0 TT = JDT 2453320.5  

